Home   Weather   North Fairfield   Past weeks
Flag for USA

Past Weather in North Fairfield, Ohio, USA — Yesterday and Last 2 Weeks

Now
75 °F

Passing clouds.


Feels Like: 77 °F
Forecast: 78 / 55 °F
Wind: 16 mph from South

Location: Lorain County Regional Airport
Current Time: Sep 28, 2020 at 12:36:13 pm
Latest Report: Sep 28, 2020 at 11:53 am
Visibility: 10 mi
Pressure29.70 "Hg
Humidity: 58%
Dew Point: 59 °F
Location of North FairfieldLocation

Past Weather in North Fairfield — Graph

°F

North Fairfield Temperature Yesterday

Maximum temperature yesterday: 78 °F (at 1:53 pm)
Minimum temperature yesterday: 62 °F (at 6:53 am)
Average temperature yesterday: 70 °F

High & Low Weather Summary for the Past Weeks

 TemperatureHumidityPressure
High80 °F (Sep 26, 3:53 pm)89% (Sep 25, 8:12 am)30.53 "Hg (Sep 25, 8:12 am)
Low37 °F (Sep 20, 7:33 am)31% (Sep 20, 2:53 pm)29.72 "Hg (Sep 28, 10:53 am)
Average60 °F66%30.15 "Hg
* Reported Sep 13 11:00 am — Sep 28 10:53 am, North Fairfield. Weather by CustomWeather, © 2020

Note: Actual official high and low records may vary slightly from our data, if they occured in-between our weather recording intervals... More about our weather records

North Fairfield Weather History for the Previous 24 Hours

Scroll right to see more
 ConditionsComfort  
Time TempWeatherWind HumidityBarometerVisibility
10:53 am
Mon, Sep 28
72 °FSunny.9 mph66%29.72 "Hg10 mi
9:53 am67 °FSunny.10 mph73%29.73 "Hg10 mi
8:53 am65 °FSunny.9 mph76%29.74 "Hg10 mi
7:53 am61 °FSunny.9 mph81%29.73 "Hg10 mi
6:53 am61 °FClear.9 mph81%29.73 "Hg10 mi
5:53 am61 °FPassing clouds.9 mph81%29.72 "Hg10 mi
4:53 am62 °FPassing clouds.7 mph78%29.72 "Hg10 mi
3:53 am62 °FPassing clouds.9 mph78%29.73 "Hg10 mi
2:53 am61 °FClear.7 mph78%29.74 "Hg10 mi
1:53 am62 °FPassing clouds.6 mph78%29.75 "Hg10 mi
12:53 am64 °FClear.7 mph73%29.77 "Hg10 mi
11:53 pm
Sun, Sep 27
66 °FPassing clouds.9 mph70%29.77 "Hg10 mi
10:53 pm68 °FPassing clouds.9 mph63%29.78 "Hg10 mi
9:53 pm69 °FPassing clouds.13 mph61%29.79 "Hg10 mi
8:53 pm68 °FClear.8 mph63%29.81 "Hg10 mi
7:53 pm70 °FClear.8 mph61%29.79 "Hg10 mi
6:53 pm73 °FSunny.9 mph55%29.79 "Hg10 mi
5:53 pm76 °FSunny.13 mph52%29.77 "Hg10 mi
4:53 pm78 °FSunny.10 mph50%29.76 "Hg10 mi
3:53 pm78 °FSunny.20 mph50%29.77 "Hg10 mi
2:53 pm78 °FSunny.15 mph50%29.78 "Hg10 mi
1:53 pm78 °FSunny.15 mph50%29.79 "Hg10 mi
12:53 pm77 °FSunny.18 mph50%29.81 "Hg10 mi
Weather by CustomWeather, © 2020

See weather overview